Location: Bothwell
(42.3833°S, 147.0000°E)
Time: 22:42:03
(UTC+11:00)

RS-44 - Pass Details

Date: 26 September 2022
Orbit: 1175 x 1510 km, 82.5° (Epoch: 29 November)

Event Time Altitude Azimuth Distance (km) Brightness Sun altitude
Exits shadow 01:03:16 23° 228° (SW) 2,770 ? -44.6°
Drops below altitude 10° 01:08:35 10° 192° (SSW) 3,690 ? -44.2°
Sets 01:12:24 0° 178° (S) 4,687 ? -43.9°
